User: anonymous   Login
Location: *
(58.7167°N, 26.1833°E)
Time: 11:22:35
(UTC+00:00)
Language:

Cosmos 1733 - Orbit

View from above orbital plane
View from above orbital plane
View from above satellite
View from above satellite

Ground track
Ground track

The orbit data is extracted from the following two-line orbital elements,

1 16611U 86018A   19287.11203013  .00000614  00000-0  29282-4 0  9994
2 16611  82.4863 277.8762 0010733 277.7394  82.2620 15.17185584837676
Epoch (UTC): 14 October 2019 02:41:19
Eccentricity: 0.0010733
inclination: 82.4863°
perigee height: 507 km
apogee height: 522 km
right ascension of ascending node: 277.8762°
argument of perigee: 277.7394°
revolutions per day: 15.17185584
mean anomaly at epoch: 82.2620°
orbit number at epoch: 83767

The dashed part of the orbit path shows where the satellite is in the earth's shadow,  

DLR